TimePST,TemperatureF,Dew PointF,Humidity,Sea Level PressureIn,VisibilityMPH,Wind Direction,Wind SpeedMPH,Gust SpeedMPH,PrecipitationIn,Events,Conditions,WindDirDegrees,DateUTC
12:52 AM,55.9,46.0,69,30.02,10.0,NE,3.5,-,N/A,,Clear,40,2012-12-01 08:52:00
1:52 AM,54.0,44.1,69,30.02,10.0,NW,3.5,-,N/A,,Clear,310,2012-12-01 09:52:00
2:52 AM,54.0,46.0,75,30.02,10.0,North,5.8,-,N/A,,Clear,350,2012-12-01 10:52:00
3:52 AM,53.1,46.0,77,30.01,10.0,NW,4.6,-,N/A,,Clear,320,2012-12-01 11:52:00
4:52 AM,53.1,46.0,77,30.03,10.0,WNW,3.5,-,N/A,,Clear,300,2012-12-01 12:52:00
5:52 AM,52.0,46.0,80,30.05,10.0,NW,4.6,-,N/A,,Clear,310,2012-12-01 13:52:00
6:52 AM,52.0,46.0,80,30.06,10.0,Calm,Calm,-,N/A,,Clear,0,2012-12-01 14:52:00
7:52 AM,57.0,46.9,69,30.08,10.0,NW,3.5,-,N/A,,Clear,310,2012-12-01 15:52:00
8:52 AM,64.0,48.9,58,30.09,10.0,WSW,5.8,-,N/A,,Clear,240,2012-12-01 16:52:00
9:52 AM,66.0,48.9,54,30.09,10.0,SSW,3.5,-,N/A,,Clear,210,2012-12-01 17:52:00
10:52 AM,70.0,50.0,49,30.07,10.0,Calm,Calm,-,N/A,,Clear,0,2012-12-01 18:52:00
11:52 AM,72.0,51.1,48,30.04,10.0,Calm,Calm,-,N/A,,Clear,0,2012-12-01 19:52:00
12:52 PM,73.9,51.1,45,30.01,10.0,ESE,3.5,-,N/A,,Clear,110,2012-12-01 20:52:00
1:52 PM,75.9,50.0,40,30.00,10.0,Calm,Calm,-,N/A,,Clear,0,2012-12-01 21:52:00
2:52 PM,77.0,48.9,37,29.99,10.0,SE,3.5,-,N/A,,Clear,130,2012-12-01 22:52:00
3:52 PM,73.9,51.1,45,29.99,10.0,SE,4.6,-,N/A,,Clear,140,2012-12-01 23:52:00
4:52 PM,73.0,50.0,44,29.98,10.0,Calm,Calm,-,N/A,,Clear,0,2012-12-02 00:52:00
5:52 PM,69.1,48.9,49,29.98,10.0,Calm,Calm,-,N/A,,Clear,0,2012-12-02 01:52:00
6:52 PM,66.9,48.0,51,29.99,10.0,WSW,4.6,-,N/A,,Clear,250,2012-12-02 02:52:00
7:52 PM,66.9,46.9,49,29.99,10.0,Calm,Calm,-,N/A,,Clear,0,2012-12-02 03:52:00
8:52 PM,64.9,46.0,50,30.00,10.0,Calm,Calm,-,N/A,,Clear,0,2012-12-02 04:52:00
9:52 PM,59.0,48.9,69,30.00,10.0,East,3.5,-,N/A,,Clear,100,2012-12-02 05:52:00
10:52 PM,57.9,48.0,70,30.00,10.0,East,3.5,-,N/A,,Clear,100,2012-12-02 06:52:00
11:52 PM,55.9,45.0,67,30.00,10.0,NNW,4.6,-,N/A,,Clear,330,2012-12-02 07:52:00